Weather History for YBHM - May, 2012

Change the Weather History Date:

Wednesday, May 23, 2012

  Actual Average Record
Temperature  
Mean Temperature 70 °F -  
Max Temperature 73 °F - - ()
Min Temperature 68 °F - - ()
Cooling Degree Days 6    
Growing Degree Days 20 (Base 50)    
Moisture  
Dew Point 67 °F    
Average Humidity 86    
Maximum Humidity 100    
Minimum Humidity 70    
Precipitation  
Precipitation 0.00 in - - ()
Sea Level Pressure  
Sea Level Pressure 30.07 in    
Wind  
Wind Speed 21 mph ()    
Max Wind Speed 26 mph    
Max Gust Speed -    
T = Trace of Precipitation, MM = Missing Value Source: Averaged Metar Reports

Daily Weather History Graph

Daily Weather History Graph

Search for Another Location

Airport or City:

Trip Planner

Search our weather history database for the weather conditions in past years. The results will help you decide how hot, cold, wet, or windy it might be!

Date:

Astronomy

May. 23, 2012 Rise Set
Actual Time 6:29 AM AEST 5:32 PM AEST
Civil Twilight 6:05 AM AEST 5:56 PM AEST
Nautical Twilight 5:38 AM AEST 6:23 PM AEST
Astronomical Twilight 5:11 AM AEST 6:49 PM AEST
Moon 8:05 AM AEST (5/23) 7:20 PM AEST (5/23)
Length of Visible Light 11h 50m
Length of Day
11h 03m
Waxing Crescent, 4% of the Moon is Illuminated
May 23
Waxing Crescent
May 29
First Quarter
Jun 4
Full
Jun 11
Last Quarter
Jun 20
New

Hourly Weather History & Observations

Time (AEST) Temp. Dew Point Humidity Pressure Visibility Wind Dir Wind Speed Gust Speed Precip Events Conditions
12:00 AM 70 °F 69 °F 95% 30.10 in - SSE 20.7 mph - -  
12:00 AM 69.8 °F 69.8 °F 100% 30.09 in - SSE 20.7 mph - N/A   Unknown
12:30 AM 71.6 °F 68.0 °F 88% 30.09 in - SE 23.0 mph - N/A   Unknown
1:00 AM 71.6 °F 66.2 °F 83% 30.09 in - SSE 23.0 mph - N/A   Unknown
1:30 AM 69.8 °F 69.8 °F 100% 30.09 in - SSE 21.9 mph - N/A   Unknown
2:00 AM 69.8 °F 68.0 °F 94% 30.06 in - SSE 23.0 mph - N/A   Unknown
2:30 AM 69.8 °F 68.0 °F 94% 30.06 in - SSE 23.0 mph - N/A   Unknown
3:00 AM 69 °F - % 30.08 in - SSE 24.2 mph - -  
3:00 AM 69.8 °F 69.8 °F 100% 30.06 in - SSE 24.2 mph - N/A   Unknown
3:30 AM 69.8 °F 69.8 °F 100% 30.06 in - SSE 24.2 mph - N/A   Unknown
4:00 AM 69.8 °F 66.2 °F 88% 30.04 in - SSE 25.3 mph - N/A   Unknown
4:30 AM 69.8 °F 68.0 °F 94% 30.04 in - SSE 26.5 mph - N/A   Unknown
5:00 AM 69.8 °F 68.0 °F 94% 30.06 in - SSE 24.2 mph - N/A   Unknown
5:30 AM 69.8 °F 68.0 °F 94% 30.06 in - SSE 20.7 mph - N/A   Unknown
6:00 AM 70 °F 68 °F 91% 30.08 in - SSE 24.2 mph - -  
6:00 AM 69.8 °F 68.0 °F 94% 30.06 in - SSE 24.2 mph - N/A   Unknown
6:30 AM 69.8 °F 68.0 °F 94% 30.09 in - SSE 21.9 mph - N/A   Unknown
7:00 AM 69.8 °F 64.4 °F 83% 30.06 in - SSE 24.2 mph - N/A   Unknown
7:30 AM 69.8 °F 66.2 °F 88% 30.09 in - SSE 23.0 mph - N/A   Unknown
8:00 AM 69.8 °F 66.2 °F 88% 30.12 in - SSE 23.0 mph - N/A   Unknown
8:30 AM 69.8 °F 64.4 °F 83% 30.12 in - SSE 24.2 mph - N/A   Unknown
9:00 AM 70 °F 65 °F 80% 30.14 in - SSE 24.2 mph - -  
9:00 AM 69.8 °F 64.4 °F 83% 30.12 in - SSE 24.2 mph - N/A   Unknown
9:30 AM 69.8 °F 64.4 °F 83% 30.12 in - SSE 25.3 mph - N/A   Unknown
10:00 AM 71.6 °F 64.4 °F 78% 30.12 in - SSE 25.3 mph - N/A   Unknown
10:30 AM 71.6 °F 62.6 °F 73% 30.12 in - SSE 26.5 mph - N/A   Unknown
11:00 AM 71.6 °F 64.4 °F 78% 30.12 in - SSE 21.9 mph - N/A   Unknown
11:30 AM 71.6 °F 66.2 °F 83% 30.09 in - SSE 24.2 mph - N/A   Unknown
12:00 PM 72 °F 67 °F 79% 30.08 in - SSE 25.3 mph - -  
12:00 PM 71.6 °F 66.2 °F 83% 30.06 in - SSE 25.3 mph - N/A   Unknown
12:30 PM 71.6 °F 64.4 °F 78% 30.06 in - SSE 20.7 mph - N/A   Unknown
1:00 PM 73.4 °F 64.4 °F 73% 30.06 in - SSE 24.2 mph - N/A   Unknown
1:30 PM 71.6 °F 64.4 °F 78% 30.04 in - SSE 23.0 mph - N/A   Unknown
2:00 PM 71.6 °F 69.8 °F 94% 30.04 in - SSE 23.0 mph - N/A   Unknown
2:30 PM 71.6 °F 68.0 °F 88% 30.04 in - SSE 23.0 mph - N/A   Unknown
3:00 PM 72 °F 67 °F 80% 30.03 in - SSE 23.0 mph - -  
3:00 PM 71.6 °F 68.0 °F 88% 30.04 in - SSE 23.0 mph - N/A   Unknown
3:30 PM 71.6 °F 66.2 °F 83% 30.04 in - SSE 19.6 mph - N/A   Unknown
4:00 PM 71.6 °F 66.2 °F 83% 30.04 in - SSE 21.9 mph - N/A   Unknown
4:30 PM 71.6 °F 69.8 °F 94% 30.04 in - SSE 20.7 mph - N/A   Unknown
5:00 PM 71.6 °F 66.2 °F 83% 30.04 in - ESE 19.6 mph - N/A   Unknown
5:30 PM 71.6 °F 66.2 °F 83% 30.04 in - ESE 21.9 mph - N/A   Unknown
6:00 PM 73 °F 65 °F 70% 30.05 in - ESE 17.3 mph - -  
6:00 PM 73.4 °F 64.4 °F 73% 30.04 in - ESE 17.3 mph - N/A   Unknown
6:30 PM 73.4 °F 68.0 °F 83% 30.04 in - ESE 18.4 mph - N/A   Unknown
7:00 PM 73.4 °F 66.2 °F 78% 30.04 in - ESE 18.4 mph - N/A   Unknown
7:30 PM 73.4 °F 64.4 °F 73% 30.04 in - ESE 18.4 mph - N/A   Unknown
8:00 PM 73.4 °F 66.2 °F 78% 30.06 in - ESE 20.7 mph - N/A   Unknown
8:30 PM 73.4 °F 68.0 °F 83% 30.06 in - ESE 19.6 mph - N/A   Unknown
9:00 PM 73.4 °F 69.8 °F 88% 30.06 in - ESE 20.7 mph - N/A   Unknown
9:30 PM 73.4 °F 68.0 °F 83% 30.09 in - East 23.0 mph - N/A   Unknown
10:00 PM 73.4 °F 68.0 °F 83% 30.06 in - ESE 21.9 mph - N/A   Unknown
10:30 PM 73.4 °F 71.6 °F 94% 30.06 in - ESE 20.7 mph - N/A   Unknown
11:00 PM 73.4 °F 69.8 °F 88% 30.06 in - ESE 23.0 mph - N/A   Unknown
11:30 PM 73.4 °F 69.8 °F 88% 30.06 in - ESE 19.6 mph - N/A   Unknown